Weather History for Altoona, PA

Change the Weather History Date:

Friday, August 1, 2014

  Actual Average Record
Temperature  
Mean Temperature 67 °F 71 °F  
Max Temperature 79 °F 81 °F 94 °F (1955)
Min Temperature 55 °F 60 °F 50 °F (1964)
Degree Days  
Heating Degree Days 0 0  
Month to date heating degree days 0 0  
Since 1 June heating degree days 29 68  
Since 1 July heating degree days 14 10  
Cooling Degree Days 2 6  
Month to date cooling degree days 2 6  
Year to date cooling degree days 353 333  
Since 1 June cooling degree days 306 300  
Growing Degree Days 16 (Base 50)    
Moisture  
Dew Point 59 °F    
Average Humidity 77    
Maximum Humidity 100    
Minimum Humidity 54    
Precipitation  
Precipitation 0.00 in 0.10 in 1.48 in (1965)
Month to date precipitation 0.00 0.10  
Year to date precipitation 23.67 21.02  
Sea Level Pressure  
Sea Level Pressure 30.17 in    
Wind  
Wind Speed 4 mph (South)    
Max Wind Speed 15 mph    
Max Gust Speed 20 mph    
Visibility 5 miles    
Events Fog , Thunderstorm    
T = Trace of Precipitation, MM = Missing Value Source: NWS Daily Summary

Daily Weather History Graph

Daily Weather History Graph

Search for Another Location

Airport:

Trip Planner

Search our weather history database for the weather conditions in past years. The results will help you decide how hot, cold, wet, or windy it might be!

Date:

Astronomy

Aug. 01, 2014 Rise Set
Actual Time 6:10 AM EDT 8:27 PM EDT
Civil Twilight 5:40 AM EDT 8:58 PM EDT
Nautical Twilight 5:02 AM EDT 9:35 PM EDT
Astronomical Twilight 4:21 AM EDT 10:16 PM EDT
Moon 11:33 AM EDT (8/1) 11:10 PM EDT (8/1)
Length of Visible Light 15h 17m
Length of Day
14h 16m
Waxing Crescent, 27% of the Moon is Illuminated
Aug 1
Waxing Crescent
Aug 3
First Quarter
Aug 10
Full
Aug 17
Last Quarter
Aug 25
New

Hourly Weather History & Observations

Time (EDT) Temp. Dew Point Humidity Pressure Visibility Wind Dir Wind Speed Gust Speed Precip Events Conditions
12:53 AM 60.1 °F 57.9 °F 93% 30.16 in 7.0 mi Calm Calm - N/A   Clear
1:53 AM 59.0 °F 57.9 °F 96% 30.16 in 6.0 mi Calm Calm - N/A   Clear
2:53 AM 59.0 °F 57.0 °F 93% 30.15 in 6.0 mi Calm Calm - N/A   Clear
3:53 AM 57.9 °F 57.9 °F 100% 30.15 in 3.0 mi Calm Calm - N/A   Clear
4:13 AM 57.0 °F 57.0 °F 100% 30.17 in 1.5 mi Calm Calm - N/A   Clear
4:30 AM 57.0 °F 57.0 °F 100% 30.17 in 2.5 mi Calm Calm - N/A   Clear
4:33 AM 55.9 °F 55.9 °F 100% 30.17 in 1.0 mi Calm Calm - N/A   Mist
4:35 AM 55.0 °F 55.0 °F 100% 30.17 in 0.8 mi Calm Calm - N/A   Mist
4:42 AM 57.0 °F 55.9 °F 96% 30.16 in 0.5 mi Calm Calm - N/A Fog Fog
4:53 AM 55.9 °F 55.9 °F 100% 30.15 in 0.5 mi Calm Calm - N/A Fog Fog
4:57 AM 57.9 °F 57.0 °F 97% 30.17 in 1.2 mi Calm Calm - N/A   Partly Cloudy
5:05 AM 57.9 °F 57.9 °F 100% 30.17 in 2.5 mi Calm Calm - N/A   Clear
5:14 AM 55.9 °F 55.9 °F 100% 30.17 in 3.0 mi Calm Calm - N/A   Clear
5:36 AM 55.9 °F 55.0 °F 97% 30.18 in 2.0 mi Calm Calm - N/A   Mostly Cloudy
5:43 AM 55.0 °F 55.0 °F 100% 30.18 in 1.8 mi Calm Calm - N/A   Overcast
5:53 AM 57.9 °F 57.0 °F 97% 30.16 in 2.0 mi Calm Calm - N/A   Mostly Cloudy
6:41 AM 57.0 °F 55.9 °F 96% 30.19 in 2.0 mi Calm Calm - N/A   Clear
6:53 AM 57.0 °F 55.9 °F 96% 30.18 in 2.5 mi Calm Calm - N/A   Clear
7:44 AM 60.1 °F 59.0 °F 96% 30.20 in 2.0 mi Calm Calm - N/A   Clear
7:53 AM 60.1 °F 59.0 °F 96% 30.19 in 1.8 mi Calm Calm - N/A   Clear
8:01 AM 61.0 °F 60.1 °F 97% 30.21 in 2.0 mi Calm Calm - N/A   Clear
8:18 AM 61.0 °F 60.1 °F 97% 30.20 in 3.0 mi Calm Calm - N/A   Clear
8:53 AM 64.0 °F 62.1 °F 93% 30.19 in 4.0 mi Calm Calm - N/A   Clear
9:53 AM 68.0 °F 62.1 °F 81% 30.19 in 6.0 mi Calm Calm - N/A   Haze
10:53 AM 72.0 °F 63.0 °F 73% 30.20 in 9.0 mi East 3.5 mph - N/A   Clear
11:53 AM 73.9 °F 63.0 °F 68% 30.20 in 10.0 mi South 3.5 mph - N/A   Clear
12:53 PM 77.0 °F 64.0 °F 64% 30.19 in 10.0 mi Variable 6.9 mph - N/A   Clear
1:53 PM 75.9 °F 64.0 °F 67% 30.18 in 10.0 mi Variable 5.8 mph - N/A   Scattered Clouds
2:41 PM 77.0 °F 63.0 °F 62% 30.19 in 10.0 mi SSW 10.4 mph - N/A Thunderstorm Mostly Cloudy
2:53 PM 78.1 °F 63.0 °F 60% 30.17 in 10.0 mi SSW 8.1 mph - N/A   Mostly Cloudy
3:53 PM 77.0 °F 62.1 °F 60% 30.15 in 10.0 mi South 8.1 mph - N/A   Mostly Cloudy
4:53 PM 78.1 °F 61.0 °F 56% 30.16 in 10.0 mi South 8.1 mph - N/A   Clear
5:53 PM 77.0 °F 60.1 °F 56% 30.14 in 10.0 mi South 9.2 mph - N/A   Clear
6:53 PM 73.9 °F 60.1 °F 62% 30.15 in 10.0 mi South 10.4 mph - N/A   Clear
7:53 PM 71.1 °F 61.0 °F 70% 30.15 in 10.0 mi South 6.9 mph - N/A   Clear
8:53 PM 69.1 °F 61.0 °F 75% 30.16 in 10.0 mi SSE 4.6 mph - N/A   Partly Cloudy
10:53 PM 66.9 °F 61.0 °F 81% 30.17 in 10.0 mi South 4.6 mph - N/A   Clear
11:53 PM 66.0 °F 61.0 °F 84% 30.17 in 10.0 mi Calm Calm - N/A   Scattered Clouds